Regional Weather Roundup
Issued by NWS

Home | Current Version | Previous Version | Text Only | Print | Product List | Glossary On
Versions: 1 2 3 4 5 6 7 8 9 10 11 12 13 14 15 16 17 18 19 20 21 22 23 24 25 26 27 28 29 30 31 32 33 34 35 36 37 38 39 40 41 42 43 44 45 46 47 48 49 50
000
ASUS43 KIND 262209
RWRIN

WEATHER ROUNDUP FOR INDIANA
NATIONAL WEATHER SERVICE INDIANAPOLIS IN
500 PM EST MON JAN 26 2015

NOTE: "FAIR" INDICATES FEW OR NO CLOUDS BELOW 12,000 FEET WITH NO
SIGNIFICANT WEATHER AND/OR OBSTRUCTIONS TO VISIBILITY.

* - STATION DOES NOT REPORT WEATHER SUCH AS PRECIPITATION OR FOG.

+ - STATION NOT QUALITY CONTROLLED BY THE NATIONAL WEATHER SERVICE.
    USE DATA WITH CAUTION...ESPECIALLY DEWPOINT AND RELATIVE
    HUMIDITY OBSERVATIONS.

INZ001>003-010>013-019-020-262300-
NORTHWEST INDIANA

CITY           SKY/WX    TMP DP  RH WIND       PRES   REMARKS
GARY /AIRPORT/ FLURRIES  28  19  69 SE5       29.88F WCI  23
KNOX *+        CLOUDY    24   2  38 SE3       29.90F
LA PORTE +     CLOUDY    25  16  69 S3        29.90F
MICHIGAN CITY+ MOCLDY    25  10  54 SE6       29.90F WCI  18
MONTICELLO +   CLOUDY    25  20  80 CALM      29.90S
RENSSELAER +   MOCLDY    28  27  93 SE5       29.89S WCI  23
VALPARAISO     MOCLDY    24  17  74 SE6       29.88F WCI  17

$$

LMZ046-743>745-262300-
SOUTHERN LAKE MICHIGAN

STATION/POSITION TIME  TEMP WIND        PRES
                       AIR  DIR/SP/G
                 (UTC) (F)  (DEG/KT/KT) (MB)
MICHIGAN CITY    2200   24  110/  5/  7   N/A

$$

INZ004-005-014>016-021>024-262300-
NORTH CENTRAL INDIANA

CITY           SKY/WX    TMP DP  RH WIND       PRES   REMARKS
GOSHEN         CLOUDY    22   9  57 SW3       29.91R
LOGANSPORT +   CLOUDY    23  14  68 CALM      29.92R
PERU/GRISSOM   CLOUDY    20  11  67 CALM      29.91R
ROCHESTER +    MOCLDY    27  16  63 CALM      29.92R
SOUTH BEND     CLOUDY    24  13  62 CALM      29.90F
WARSAW +       MOCLDY    25  12  58 W3        29.91R

$$

INZ006>009-017-018-025>027-262300-
NORTHEAST INDIANA

CITY           SKY/WX    TMP DP  RH WIND       PRES   REMARKS
ANGOLA *+      CLOUDY    23   7  50 W3        29.90R
AUBURN +       PTCLDY    25   3  39 CALM      29.92R
FORT WAYNE     MOCLDY    19  11  70 S5        29.92R WCI  12
HUNTINGTON +   CLOUDY    22   8  55 S3        29.92R

$$

INZ028-029-035-036-043>045-051>053-262300-
WEST CENTRAL INDIANA

CITY           SKY/WX    TMP DP  RH WIND       PRES   REMARKS
CRAWFORDSVL +  CLOUDY    27  16  64 W3        29.89S
GREENCASTLE +  CLOUDY    28  19  69 CALM      29.90S
LAFAYETTE      CLOUDY    27  20  75 CALM      29.90S
TERRE HAUTE    CLOUDY    28  24  85 SW3       29.91F

$$

INZ030>032-037>040-046>048-054>057-064-065-262300-
CENTRAL INDIANA

CITY           SKY/WX    TMP DP  RH WIND       PRES   REMARKS
CP ATTERBURY + CLOUDY    30  23  74 NW6       29.91F WCI  24
COLUMBUS       CLOUDY    28  19  69 N5        29.92S WCI  23
INDIANAPOLIS   CLOUDY    25  19  78 CALM      29.89F
-EAGLE CREEK   CLOUDY    27  19  72 CALM      29.89F
KOKOMO *+      PTCLDY    23  14  68 N3        29.92R
MARION +       PTCLDY    21  12  67 CALM      29.92S
MT COMFORT *+  MOCLDY    28  12  50 CALM      29.90S
SHELBYVILLE    CLOUDY    28  19  69 W8        29.90S WCI  20
ZIONSVILLE +   CLOUDY    27  19  71 CALM      29.89S

$$

INZ033-034-041-042-049-050-058-059-262300-
EAST CENTRAL INDIANA

CITY           SKY/WX    TMP DP  RH WIND       PRES   REMARKS
MUNCIE         CLEAR     22  14  71 NW3       29.91R

$$

INZ060-061-067>069-081>083-085>088-262300-
SOUTHWEST INDIANA

CITY           SKY/WX    TMP DP  RH WIND       PRES   REMARKS
EVANSVILLE     LGT SNOW  30  25  81 SW6       29.95F VSB 3/4 WCI  24
HUNTINGBURG *+ CLOUDY    28  23  80 W9        29.96R WCI  20
WASHINGTON +   FLURRIES  29  22  75 SW7       29.93F WCI  22

$$

INZ062-063-066-070>080-084-089>092-262300-
SOUTH CENTRAL AND SOUTHEAST INDIANA

CITY           SKY/WX    TMP DP  RH WIND       PRES   REMARKS
BLOOMINGTON    CLOUDY    29  23  78 VRB3      29.90S
SEYMOUR +      MOCLDY    32  23  69 NW7       29.93  WCI  26

$$



USA.gov is the U.S. government's official web portal to all federal, state and local government web resources and services.